• In Netherlands
  • List of Countries
  • For 7 days
  • Water Temperature
  • Satellite Maps
  • Weather Map
  • Weather Widgets
  • user-avatar
    Login

    Hourly Weather Hrazdan

    Today, 27 May, Saturday

    Time Temperature Precipitation Wind Pressure Humidity
    00:00 +6°C° 0.3 mm 1 mps 611 mmHg 87%
    01:00 +6°C° 0.1 mm 1 mps 610 mmHg 88%
    02:00 +5°C° 0.1 mm 1 mps 610 mmHg 89%
    03:00 +5°C° 0.1 mm 1 mps 610 mmHg 90%
    04:00 +6°C° 0.1 mm 1 mps 610 mmHg 86%
    05:00 +8°C° 0.1 mm 1 mps 611 mmHg 82%
    06:00 +9°C° 0.1 mm 1 mps 611 mmHg 78%
    07:00 +11°C° 0 mm 1 mps 612 mmHg 69%
    08:00 +13°C° 0 mm 1 mps 613 mmHg 61%
    09:00 +15°C° 0 mm 2 mps 613 mmHg 52%
    10:00 +16°C° 0.2 mm 2 mps 613 mmHg 48%
    11:00 +18°C° 0.2 mm 2 mps 613 mmHg 45%
    12:00 +19°C° 0.2 mm 2 mps 613 mmHg 41%
    13:00 +19°C° 0.5 mm 2 mps 613 mmHg 44%
    14:00 +19°C° 0.5 mm 2 mps 612 mmHg 47%
    15:00 +18°C° 0.5 mm 2 mps 612 mmHg 50%
    16:00 +17°C° 0.8 mm 2 mps 612 mmHg 56%
    17:00 +16°C° 0.8 mm 1 mps 611 mmHg 62%
    18:00 +15°C° 0.8 mm 1 mps 611 mmHg 68%
    19:00 +13°C° 0.4 mm 1 mps 610 mmHg 75%
    20:00 +10°C° 0.4 mm 1 mps 610 mmHg 81%
    21:00 +8°C° 0.4 mm 1 mps 609 mmHg 88%
    22:00 +7°C° 0.1 mm 1 mps 609 mmHg 88%
    23:00 +7°C° 0.1 mm 1 mps 609 mmHg 88%

    Tomorrow, 28 May, Sunday

    Time Temperature Precipitation Wind Pressure Humidity
    00:00 +7°C° 0.1 mm 1 mps 609 mmHg 88%
    01:00 +6°C° 0 mm 1 mps 609 mmHg 88%
    02:00 +6°C° 0 mm 1 mps 609 mmHg 87%
    03:00 +5°C° 0 mm 1 mps 609 mmHg 87%
    04:00 +7°C° 0 mm 1 mps 610 mmHg 84%
    05:00 +8°C° 0 mm 1 mps 611 mmHg 81%
    06:00 +9°C° 0 mm 1 mps 611 mmHg 78%
    07:00 +12°C° 0 mm 1 mps 612 mmHg 66%
    08:00 +14°C° 0 mm 1 mps 613 mmHg 55%
    09:00 +17°C° 0 mm 2 mps 614 mmHg 44%
    10:00 +18°C° 0.1 mm 2 mps 614 mmHg 41%
    11:00 +19°C° 0.1 mm 2 mps 614 mmHg 38%
    12:00 +20°C° 0.1 mm 3 mps 615 mmHg 35%
    13:00 +20°C° 0.4 mm 3 mps 614 mmHg 35%
    14:00 +20°C° 0.4 mm 3 mps 614 mmHg 34%
    15:00 +20°C° 0.4 mm 3 mps 614 mmHg 34%
    16:00 +19°C° 0.5 mm 3 mps 614 mmHg 40%
    17:00 +18°C° 0.5 mm 2 mps 614 mmHg 47%
    18:00 +16°C° 0.5 mm 2 mps 613 mmHg 53%
    19:00 +13°C° 0.4 mm 2 mps 613 mmHg 62%
    20:00 +10°C° 0.4 mm 1 mps 612 mmHg 72%
    21:00 +7°C° 0.4 mm 1 mps 611 mmHg 81%
    22:00 +7°C° 0 mm 1 mps 612 mmHg 81%
    23:00 +6°C° 0 mm 1 mps 612 mmHg 82%

    Day after tomorrow, 29 May, Monday

    Time Temperature Precipitation Wind Pressure Humidity
    00:00 +4°C° 0 mm 0 mps 612 mmHg 83%
    01:00 +4°C° 0 mm 0 mps 612 mmHg 85%
    02:00 +4°C° 0 mm 0 mps 612 mmHg 86%
    03:00 +3°C° 0 mm 0 mps 611 mmHg 88%
    04:00 +6°C° 0 mm 1 mps 612 mmHg 83%
    05:00 +8°C° 0 mm 1 mps 613 mmHg 78%
    06:00 +10°C° 0 mm 1 mps 615 mmHg 73%
    07:00 +12°C° 0 mm 1 mps 616 mmHg 62%
    08:00 +15°C° 0 mm 1 mps 617 mmHg 52%
    09:00 +18°C° 0 mm 1 mps 618 mmHg 41%
    10:00 +19°C° 0.1 mm 1 mps 618 mmHg 39%
    11:00 +19°C° 0.1 mm 2 mps 618 mmHg 37%
    12:00 +20°C° 0.1 mm 2 mps 618 mmHg 35%
    13:00 +20°C° 0.3 mm 2 mps 618 mmHg 37%
    14:00 +20°C° 0.3 mm 2 mps 617 mmHg 40%
    15:00 +20°C° 0.3 mm 2 mps 617 mmHg 42%
    16:00 +19°C° 0.7 mm 2 mps 617 mmHg 50%
    17:00 +19°C° 0.7 mm 1 mps 616 mmHg 59%
    18:00 +16°C° 0.7 mm 1 mps 616 mmHg 67%
    19:00 +14°C° 1 mm 1 mps 615 mmHg 73%
    20:00 +12°C° 1 mm 1 mps 615 mmHg 79%
    21:00 +10°C° 1 mm 1 mps 615 mmHg 85%
    22:00 +9°C° 0.5 mm 1 mps 615 mmHg 86%
    23:00 +9°C° 0.5 mm 1 mps 615 mmHg 88%

    30 May, Tuesday

    Time Temperature Precipitation Wind Pressure Humidity
    00:00 +9°C° 0.5 mm 1 mps 615 mmHg 89%
    01:00 +9°C° 0.2 mm 1 mps 615 mmHg 89%
    02:00 +9°C° 0.2 mm 1 mps 615 mmHg 90%
    03:00 +9°C° 0.2 mm 1 mps 614 mmHg 90%
    04:00 +9°C° 0 mm 1 mps 615 mmHg 88%
    05:00 +10°C° 0 mm 1 mps 615 mmHg 87%
    06:00 +10°C° 0 mm 1 mps 615 mmHg 85%
    07:00 +12°C° 0 mm 1 mps 616 mmHg 74%
    08:00 +15°C° 0 mm 1 mps 617 mmHg 63%
    09:00 +18°C° 0 mm 1 mps 617 mmHg 51%
    10:00 +20°C° 0 mm 1 mps 618 mmHg 45%
    11:00 +20°C° 0 mm 2 mps 618 mmHg 39%
    12:00 +21°C° 0 mm 2 mps 618 mmHg 32%
    13:00 +23°C° 0 mm 2 mps 618 mmHg 32%
    14:00 +23°C° 0 mm 2 mps 617 mmHg 31%
    15:00 +23°C° 0 mm 2 mps 617 mmHg 31%
    16:00 +21°C° 0.1 mm 2 mps 617 mmHg 37%
    17:00 +21°C° 0.1 mm 1 mps 616 mmHg 43%
    18:00 +20°C° 0.1 mm 1 mps 616 mmHg 50%
    19:00 +15°C° 0 mm 1 mps 615 mmHg 59%
    20:00 +12°C° 0 mm 1 mps 614 mmHg 69%
    21:00 +8°C° 0 mm 1 mps 613 mmHg 79%
    22:00 +8°C° 0 mm 1 mps 613 mmHg 79%
    23:00 +8°C° 0 mm 1 mps 613 mmHg 79%

    31 May, Wednesday

    Time Temperature Precipitation Wind Pressure Humidity
    00:00 +8°C° 0 mm 1 mps 613 mmHg 79%
    01:00 +7°C° 0 mm 1 mps 612 mmHg 80%
    02:00 +7°C° 0 mm 1 mps 612 mmHg 81%
    03:00 +6°C° 0 mm 1 mps 611 mmHg 82%
    04:00 +8°C° 0 mm 1 mps 612 mmHg 75%
    05:00 +10°C° 0 mm 1 mps 613 mmHg 69%
    06:00 +12°C° 0 mm 1 mps 614 mmHg 62%
    07:00 +14°C° 0 mm 1 mps 615 mmHg 52%
    08:00 +18°C° 0 mm 1 mps 616 mmHg 41%
    09:00 +20°C° 0 mm 1 mps 616 mmHg 31%
    10:00 +22°C° 0 mm 1 mps 616 mmHg 29%
    11:00 +23°C° 0 mm 2 mps 616 mmHg 28%
    12:00 +24°C° 0 mm 2 mps 616 mmHg 26%
    13:00 +24°C° 0 mm 2 mps 616 mmHg 28%
    14:00 +24°C° 0 mm 2 mps 615 mmHg 29%
    15:00 +24°C° 0 mm 2 mps 615 mmHg 31%
    16:00 +21°C° 0.3 mm 2 mps 614 mmHg 40%
    17:00 +21°C° 0.3 mm 1 mps 614 mmHg 49%
    18:00 +20°C° 0.3 mm 1 mps 613 mmHg 58%
    19:00 +16°C° 0.9 mm 1 mps 612 mmHg 67%
    20:00 +13°C° 0.9 mm 1 mps 612 mmHg 75%
    21:00 +11°C° 0.9 mm 1 mps 611 mmHg 84%
    22:00 +10°C° 0.9 mm 1 mps 610 mmHg 85%
    23:00 +9°C° 0.9 mm 1 mps 610 mmHg 86%

    1 June, Thursday

    Time Temperature Precipitation Wind Pressure Humidity
    00:00 +9°C° 0.9 mm 1 mps 610 mmHg 87%
    01:00 +8°C° 0.8 mm 1 mps 610 mmHg 88%
    02:00 +8°C° 0.8 mm 1 mps 609 mmHg 89%
    03:00 +7°C° 0.8 mm 1 mps 609 mmHg 89%
    04:00 +9°C° 0.3 mm 1 mps 609 mmHg 87%
    05:00 +10°C° 0.3 mm 1 mps 610 mmHg 84%
    06:00 +11°C° 0.3 mm 1 mps 611 mmHg 81%
    07:00 +13°C° 0.2 mm 1 mps 611 mmHg 71%
    08:00 +15°C° 0.2 mm 1 mps 611 mmHg 62%
    09:00 +18°C° 0.2 mm 1 mps 612 mmHg 52%
    10:00 +19°C° 0.4 mm 1 mps 612 mmHg 50%
    11:00 +20°C° 0.4 mm 1 mps 612 mmHg 47%
    12:00 +21°C° 0.4 mm 1 mps 612 mmHg 44%
    13:00 +21°C° 0.8 mm 1 mps 611 mmHg 47%
    14:00 +21°C° 0.8 mm 1 mps 611 mmHg 50%
    15:00 +21°C° 0.8 mm 1 mps 611 mmHg 53%
    16:00 +19°C° 1 mm 1 mps 610 mmHg 58%
    17:00 +18°C° 1 mm 1 mps 610 mmHg 64%
    18:00 +16°C° 1 mm 1 mps 610 mmHg 69%
    19:00 +14°C° 0.5 mm 1 mps 610 mmHg 75%
    20:00 +11°C° 0.5 mm 1 mps 609 mmHg 80%
    21:00 +9°C° 0.5 mm 1 mps 609 mmHg 85%
    22:00 +8°C° 0.3 mm 1 mps 609 mmHg 86%
    23:00 +8°C° 0.3 mm 1 mps 608 mmHg 87%
    Show more